Las Vegas, NV

12:57 AM PDT on September 26, 2017 (GMT -0700)
McCarran International

Weather History for KLAS - October, 2014

Change the Weather History Date:

Sunday, October 12, 2014

  Actual Average Record
Temperature  
Mean Temperature 79 °F 71 °F  
Max Temperature 89 °F 82 °F 97 °F (1950)
Min Temperature 68 °F 60 °F 38 °F (1946)
Degree Days  
Heating Degree Days 0 1  
Month to date heating degree days 0 2  
Since 1 July heating degree days 0 3  
Cooling Degree Days 14 7  
Month to date cooling degree days 149 106  
Year to date cooling degree days 3794 3483  
Growing Degree Days 28 (Base 50)    
Moisture  
Dew Point 22 °F    
Average Humidity 17    
Maximum Humidity 28    
Minimum Humidity 6    
Precipitation  
Precipitation 0.00 in 0.01 in 1.08 in (1947)
Month to date precipitation 0.00 0.08  
Year to date precipitation 1.51 3.14  
Snow  
Snow 0.00 in 0.00 in 0.00 in ()
Month to date snowfall 0.0 0.0  
Since 1 July snowfall 0.0 0.0  
Since 1 September snowfall 0.0 0.0  
Snow Depth 0.00 in    
Sea Level Pressure  
Sea Level Pressure 29.87 in    
Wind  
Wind Speed 9 mph (North)    
Max Wind Speed 24 mph    
Max Gust Speed 35 mph    
Visibility 10 miles    
Events      
T = Trace of Precipitation, MM = Missing Value Source: NWS Daily Summary

Daily Weather History Graph

Daily Weather History Graph

Search for Another Location

Airport or City:

Trip Planner

Search our weather history database for the weather conditions in past years. The results will help you decide how hot, cold, wet, or windy it might be!

Date:

Astronomy

Oct. 12, 2014 Rise Set
Actual Time 6:44 AM PDT 6:08 PM PDT
Civil Twilight 6:19 AM PDT 6:34 PM PDT
Nautical Twilight 5:49 AM PDT 7:04 PM PDT
Astronomical Twilight 5:19 AM PDT 7:33 PM PDT
Moon 9:36 PM PDT (10/12) 11:04 AM PDT (10/12)
Length of Visible Light 12h 15m
Length of Day
11h 23m
Waning Gibbous, 78% of the Moon is Illuminated
Oct 12
Waning Gibbous
Oct 15
Last Quarter
Oct 23
New
Oct 30
First Quarter
Nov 6
Full

Hourly Weather History & Observations

Time (PDT) Temp. Dew Point Humidity Pressure Visibility Wind Dir Wind Speed Gust Speed Precip Events Conditions
12:56 AM 75.0 °F 30.0 °F 19% 29.78 in 10.0 mi South 6.9 mph - N/A   Partly Cloudy
1:56 AM 72.0 °F 33.1 °F 24% 29.77 in 10.0 mi South 5.8 mph - N/A   Partly Cloudy
2:56 AM 70.0 °F 34.0 °F 27% 29.76 in 10.0 mi SSW 5.8 mph - N/A   Partly Cloudy
3:56 AM 70.0 °F 34.0 °F 27% 29.76 in 10.0 mi WSW 6.9 mph - N/A   Partly Cloudy
4:56 AM 70.0 °F 35.1 °F 28% 29.78 in 10.0 mi South 4.6 mph - N/A   Partly Cloudy
5:56 AM 70.0 °F 33.1 °F 26% 29.80 in 10.0 mi SSW 8.1 mph - N/A   Partly Cloudy
6:56 AM 69.1 °F 32.0 °F 25% 29.81 in 10.0 mi WSW 6.9 mph - N/A   Partly Cloudy
7:56 AM 75.9 °F 28.9 °F 18% 29.81 in 10.0 mi WSW 11.5 mph - N/A   Partly Cloudy
8:56 AM 80.1 °F 27.0 °F 14% 29.84 in 10.0 mi Calm Calm - N/A   Partly Cloudy
9:44 AM 84.0 °F 21.9 °F 10% 29.93 in 10.0 mi NNW 12.7 mph 19.6 mph N/A   Partly Cloudy
9:46 AM 84.0 °F 21.9 °F 10% 29.93 in 10.0 mi NNW 9.2 mph 19.6 mph N/A   Partly Cloudy
9:56 AM 84.0 °F 21.9 °F 10% 29.86 in 10.0 mi North 16.1 mph - N/A   Partly Cloudy
10:56 AM 84.9 °F 19.0 °F 9% 29.86 in 10.0 mi North 12.7 mph 23.0 mph N/A   Partly Cloudy
11:56 AM 87.1 °F 17.1 °F 8% 29.86 in 10.0 mi NW 13.8 mph 21.9 mph N/A   Partly Cloudy
12:46 PM 87.1 °F 21.9 °F 9% 29.92 in 10.0 mi NNE 11.5 mph 28.8 mph N/A   Partly Cloudy
12:56 PM 87.1 °F 24.1 °F 10% 29.85 in 10.0 mi NNE 11.5 mph - N/A   Partly Cloudy
1:56 PM 88.0 °F 15.1 °F 7% 29.84 in 10.0 mi NNW 18.4 mph - N/A   Partly Cloudy
2:49 PM 87.1 °F 17.1 °F 8% 29.91 in 10.0 mi ENE 15.0 mph 25.3 mph N/A   Partly Cloudy
2:56 PM 87.1 °F 17.1 °F 8% 29.85 in 10.0 mi NNE 12.7 mph - N/A   Partly Cloudy
3:56 PM 86.0 °F 15.1 °F 7% 29.85 in 10.0 mi NNE 10.4 mph 20.7 mph N/A   Partly Cloudy
4:56 PM 84.0 °F 12.0 °F 7% 29.86 in 10.0 mi NE 10.4 mph - N/A   Clear
5:56 PM 82.0 °F 9.0 °F 6% 29.88 in 10.0 mi NNE 15.0 mph - N/A   Clear
6:56 PM 80.1 °F 9.0 °F 7% 29.90 in 10.0 mi NE 9.2 mph - N/A   Clear
7:56 PM 75.9 °F 19.0 °F 12% 29.92 in 10.0 mi NNE 6.9 mph - N/A   Clear
8:56 PM 75.0 °F 19.0 °F 12% 29.95 in 10.0 mi North 10.4 mph - N/A   Clear
9:56 PM 73.9 °F 19.9 °F 13% 29.98 in 10.0 mi NE 6.9 mph - N/A   Clear
10:56 PM 72.0 °F 19.9 °F 14% 30.00 in 10.0 mi NNE 8.1 mph - N/A   Clear
11:56 PM 70.0 °F 21.0 °F 16% 30.01 in 10.0 mi Variable 4.6 mph - N/A   Clear